[[{"header":{"parameterUnit":"m.s-1","parameterCategory":1,"la1":30.2991,"la2":30.254,"lo1":-89.0895,"lo2":-89.0444,"dy":0.0017,"dx":0.0017,"nx":28,"ny":28,"refTime":"2025-04-24T21:00:00:Z","depth":0,"parameterNumber":2,"parameterNumberName":"U-component_of_WINDS"},"data":[0,0,0,0,0,0,0,0,0,0,0,0,0,0,0,0,0,0,0,0,0,0,0,0,0,0,0,0,0,0,0,0,0,0,0,0,0,0,0,0,0,0,0,0,0,0,0,0,0,0,0,0,0,0,0,0,0,0,-3.4701,-3.4703,0,-3.4882,-3.4884,-3.4886,-3.4901,-3.4899,-3.4897,-3.4895,-3.5082,-3.5089,-3.5096,0,0,0,0,0,0,0,0,0,0,0,0,0,-3.4371,-3.4377,-3.4701,-3.4703,-3.4706,-3.4882,-3.4884,-3.4887,-3.4901,-3.4899,-3.4897,-3.4894,-3.508,-3.5088,-3.5096,0,0,0,0,0,0,0,0,0,0,0,0,0,-3.453,-3.4379,-3.4701,-3.4734,-3.4739,-3.4881,-3.4884,-3.4888,-3.4902,-3.4899,-3.4896,-3.4893,-3.5077,-3.5087,-3.5097,-3.5219,0,0,-3.5128,-3.5133,0,0,0,0,0,0,0,0,-3.4521,-3.4542,-3.4727,-3.4732,-3.4738,-3.4866,-3.4837,-3.4999,-3.4903,-3.484,-3.4895,-3.4892,-3.5013,-3.5028,-3.5069,-3.5228,-3.5236,-3.5129,-3.5136,-3.514,-3.5143,0,0,0,0,0,0,0,-3.451,-3.4534,-3.4773,-3.473,-3.4736,-3.4741,-3.476,-3.4867,-3.4941,-3.4845,-3.4847,-3.4868,-3.5015,-3.5059,-3.5073,-3.5239,-3.5129,-3.5138,-3.5144,-3.5148,-3.5509,-3.5512,0,0,0,0,0,0,-3.4492,-3.4525,-3.4767,-3.4778,-3.462,-3.4749,-3.4771,-3.4828,-3.494,-3.4954,-3.487,-3.4868,-3.5043,-3.5061,-3.508,-3.523,-3.514,-3.5149,-3.5155,-3.5505,-3.5509,-3.5513,0,0,0,0,0,0,-3.4485,-3.4513,-3.476,-3.4652,-3.4684,-3.4758,-3.4822,-3.4833,-3.4876,-3.4958,-3.4972,-3.4901,-3.5041,-3.5065,-3.5185,-3.5237,-3.5154,-3.5163,-3.5501,-3.5507,-3.5511,-3.5531,0,0,0,0,0,0,-3.4475,-3.4511,-3.4557,-3.4653,-3.4689,-3.4861,-3.4825,-3.4839,-3.4894,-3.4892,-3.4991,-3.5004,-3.5041,-3.5169,-3.5195,-3.5249,-3.5171,-3.5497,-3.5504,-3.551,-3.5526,-3.5536,-3.5545,0,0,0,0,0,-3.4463,-3.4556,-3.4559,-3.4588,-3.4749,-3.4864,-3.4885,-3.4924,-3.4898,-3.4945,-3.4999,-3.5001,-3.5227,-3.5181,-3.521,-3.5268,-3.5494,-3.5502,-3.5509,-3.5522,-3.5534,-3.5545,0,0,0,0,0,0,-3.4464,-3.4569,-3.4574,-3.47,-3.4773,-3.4866,-3.4927,-3.4936,-3.5018,-3.5013,-3.5059,-3.5082,-3.5199,-3.5246,-3.5193,-3.5393,-3.5358,-3.5372,-3.5357,-3.537,-3.5379,-3.5365,-3.518,0,0,0,0,0,-3.4479,-3.4562,-3.465,-3.4752,-3.4789,-3.4852,-3.4903,-3.4927,-3.5005,-3.5036,-3.5098,-3.5174,-3.5262,-3.5319,-3.5405,-3.5534,-3.5556,-3.5588,-3.5598,-3.5605,-3.5616,-3.5688,-3.5704,-3.5539,-3.5539,-3.5538,0,0,-3.451,-3.4577,-3.4628,-3.4754,-3.4814,-3.49,-3.4877,-3.497,-3.5035,-3.505,-3.5166,-3.5215,-3.5303,-3.5427,-3.5485,-3.547,-3.5667,-3.5615,-3.562,-3.5627,-3.5698,-3.5713,-3.5727,-3.5544,-3.5543,-3.5542,0,0,-3.461,-3.467,-3.4762,-3.4822,-3.4913,-3.4954,-3.4976,-3.5069,-3.5102,-3.5219,-3.5233,-3.5311,-3.5462,-3.5524,-3.5576,-3.5702,-3.5708,-3.5729,-3.5778,-3.5848,-3.5861,-3.5873,-3.5918,-3.5933,-3.574,-3.5741,-3.5741,0,-3.4638,-3.4768,-3.4808,-3.4901,-3.4956,-3.4975,-3.5069,-3.5126,-3.524,-3.5278,-3.526,-3.545,-3.5511,-3.565,-3.5681,-3.5723,-3.575,-3.5717,-3.5856,-3.5868,-3.588,-3.5923,-3.594,-3.5742,-3.5742,-3.5742,-3.5742,0,-3.4797,-3.4887,-3.4951,-3.506,-3.5123,-3.5216,-3.5272,-3.5331,-3.5351,-3.5394,-3.5514,-3.5588,-3.5689,-3.5725,-3.5745,-3.5868,-3.5856,-3.5846,-3.5811,-3.5897,-3.5938,-3.5955,-3.5745,-3.5744,-3.5744,-3.5743,0,0,-3.4901,-3.5032,-3.5055,-3.5105,-3.5207,-3.5278,-3.5373,-3.5471,-3.5521,-3.56,-3.568,-3.5809,-3.5801,-3.5859,-3.5887,-3.5948,-3.6044,-3.5932,-3.5934,-3.5949,-3.6185,-3.619,-3.6209,-3.6049,-3.6053,-3.6055,-3.6177,0,-3.5012,-3.5179,-3.522,-3.5363,-3.5447,-3.5467,-3.555,-3.5622,-3.5666,-3.5745,-3.5794,-3.5884,-3.5867,-3.5903,-3.5965,-3.6019,-3.6092,-3.6011,-3.6125,-3.6128,-3.61,-3.623,-3.6236,-3.6347,-3.6194,-3.6196,-3.6198,0,-3.5164,-3.5245,-3.5397,-3.5489,-3.5526,-3.5599,-3.5693,-3.5768,-3.5851,-3.5879,-3.5945,-3.5967,-3.6067,-3.6029,-3.6168,-3.6112,-3.6162,-3.6196,-3.6201,-3.6212,-3.6167,-3.6244,-3.6384,-3.64,-3.6224,-3.6222,-3.622,0,-3.5223,-3.5371,-3.5481,-3.5524,-3.5634,-3.5685,-3.5733,-3.5813,-3.587,-3.5954,-3.5991,-3.6085,-3.6136,-3.6209,-3.6256,-3.6224,-3.6392,-3.6357,-3.6418,-3.6417,-3.6451,-3.6448,-3.66,-3.6485,-3.6485,-3.6484,-3.6484,0,-3.5343,-3.5434,-3.551,-3.5577,-3.5681,-3.5728,-3.583,-3.5879,-3.595,-3.6028,-3.6053,-3.6126,-3.6184,-3.6266,-3.6304,-3.6413,-3.6436,-3.6462,-3.6471,-3.6459,-3.6456,-3.6491,-3.6484,-3.6489,-3.6488,-3.6487,-3.6486,0,-3.5426,-3.548,-3.5601,-3.5696,-3.5722,-3.5794,-3.5876,-3.5943,-3.5988,-3.6087,-3.6113,-3.6185,-3.6282,-3.6337,-3.646,-3.6485,-3.6607,-3.6613,-3.6579,-3.6582,-3.6639,-3.6633,-3.6818,-3.6845,-3.6713,-3.6714,-3.6715,0,-3.5497,-3.5568,-3.5671,-3.5725,-3.5774,-3.586,-3.5919,-3.5968,-3.6029,-3.6129,-3.6184,-3.6283,-3.6364,-3.6519,-3.6583,-3.6677,-3.6685,-3.6743,-3.6699,-3.6685,-3.6685,-3.6679,-3.6687,-3.675,-3.6751,-3.6752,-3.6753,0,-3.5619,-3.5643,-3.5725,-3.5818,-3.5887,-3.5963,-3.6038,-3.6081,-3.6144,-3.621,-3.631,-3.6373,-3.6499,-3.6597,-3.6696,-3.6747,-3.6761,-3.6767,-3.6786,-3.6774,-3.6751,-3.6764,-3.6598,-3.6762,-3.6761,-3.676,-3.676,-3.676,-3.5698,-3.5763,-3.5845,-3.5937,-3.5999,-3.6069,-3.6136,-3.6191,-3.6274,-3.6379,-3.6404,-3.6509,-3.6592,-3.6728,-3.6782,-3.6865,-3.6854,-3.6882,-3.6889,-3.6895,-3.6896,-3.6739,-3.6884,-3.6884,-3.6883,-3.6883,-3.6883,0,-3.582,-3.5875,-3.5959,-3.6063,-3.6136,-3.6143,-3.6227,-3.6287,-3.6379,-3.6455,-3.6535,-3.665,-3.6745,-3.6817,-3.6915,-3.6968,-3.6977,-3.6992,-3.6988,-3.7,-3.69,-3.6874,-3.6984,-3.6984,-3.6984,-3.6984,-3.6984,-3.6984,-3.5892,-3.6001,-3.6035,-3.6176,-3.623,-3.6332,-3.638,-3.6445,-3.6506,-3.6633,-3.6712,-3.6758,-3.6833,-3.6937,-3.7025,-3.7044,-3.7079,-3.7093,-3.7113,-3.7018,-3.7007,-3.6997,-3.6972,-3.7101,-3.7101,-3.7205,-3.7206,-3.7207]},{"header":{"parameterUnit":"m.s-1","parameterCategory":1,"la1":30.2991,"la2":30.254,"lo1":-89.0895,"lo2":-89.0444,"dy":0.0017,"dx":0.0017,"nx":28,"ny":28,"refTime":"2025-04-24T21:00:00:Z","depth":0,"parameterNumber":3,"parameterNumberName":"V-component_of_WINDS"},"data":[0,0,0,0,0,0,0,0,0,0,0,0,0,0,0,0,0,0,0,0,0,0,0,0,0,0,0,0,0,0,0,0,0,0,0,0,0,0,0,0,0,0,0,0,0,0,0,0,0,0,0,0,0,0,0,0,0,0,4.4597,4.4598,0,4.463,4.4631,4.4631,4.4566,4.4563,4.4561,4.4559,4.4589,4.4591,4.4594,0,0,0,0,0,0,0,0,0,0,0,0,0,4.4472,4.4475,4.4597,4.4598,4.4598,4.463,4.4631,4.4631,4.4566,4.4563,4.4561,4.4558,4.4588,4.4591,4.4594,0,0,0,0,0,0,0,0,0,0,0,0,0,4.4518,4.4476,4.4597,4.4569,4.4567,4.463,4.4631,4.4631,4.4566,4.4563,4.456,4.4557,4.4587,4.4591,4.4595,4.4685,0,0,4.4607,4.4609,0,0,0,0,0,0,0,0,4.4516,4.4523,4.4573,4.4572,4.4569,4.4591,4.4597,4.4649,4.4567,4.4567,4.4559,4.4555,4.4592,4.4595,4.4608,4.4686,4.4687,4.4608,4.461,4.4612,4.4613,0,0,0,0,0,0,0,4.4513,4.4521,4.461,4.4574,4.4572,4.4554,4.4557,4.4607,4.4596,4.4566,4.4562,4.4567,4.459,4.4604,4.4608,4.4688,4.4608,4.4611,4.4614,4.4616,4.484,4.4843,0,0,0,0,0,0,4.4514,4.4519,4.4609,4.4611,4.4534,4.4559,4.4562,4.4587,4.4596,4.4594,4.457,4.4564,4.4599,4.4604,4.4609,4.4714,4.4612,4.4616,4.4618,4.4837,4.4841,4.4845,0,0,0,0,0,0,4.4511,4.4522,4.4608,4.4564,4.4573,4.4564,4.4593,4.4589,4.4604,4.4598,4.4596,4.4587,4.4596,4.4603,4.4667,4.4714,4.4618,4.4622,4.4833,4.4838,4.4843,4.4926,0,0,0,0,0,0,4.4508,4.4522,4.4557,4.4565,4.4576,4.4666,4.4596,4.4592,4.4612,4.4604,4.4614,4.4612,4.4594,4.4661,4.4671,4.4718,4.4625,4.4828,4.4835,4.4841,4.4919,4.4933,4.4946,0,0,0,0,0,4.4504,4.4578,4.4559,4.457,4.462,4.4669,4.4675,4.4655,4.4616,4.465,4.4647,4.4612,4.4708,4.4668,4.4678,4.4728,4.4825,4.4833,4.4841,4.4913,4.4931,4.4946,0,0,0,0,0,0,4.4574,4.4579,4.4558,4.4637,4.4654,4.4658,4.4701,4.4674,4.47,4.4692,4.4665,4.4667,4.4736,4.4738,4.4693,4.4815,4.476,4.477,4.4811,4.4828,4.4841,4.4838,4.4628,0,0,0,0,0,4.4599,4.464,4.4641,4.4712,4.4721,4.471,4.473,4.4714,4.4729,4.4734,4.4735,4.475,4.4783,4.4806,4.4836,4.492,4.492,4.4959,4.4972,4.4984,4.4992,4.5035,4.5053,4.487,4.487,4.487,0,0,4.4651,4.4658,4.4686,4.4726,4.4737,4.4778,4.4716,4.4762,4.4793,4.4741,4.4801,4.4803,4.4817,4.489,4.4923,4.4894,4.5043,4.4993,4.5002,4.5005,4.5045,4.5063,4.5078,4.4876,4.4875,4.4874,0,0,4.4766,4.4777,4.4836,4.4848,4.4866,4.4858,4.4872,4.4881,4.488,4.4941,4.4903,4.4937,4.4996,4.5008,4.5021,4.5142,4.511,4.5152,4.5222,4.5265,4.5279,4.5291,4.5333,4.5349,4.5161,4.5162,4.5162,0,4.4827,4.489,4.4869,4.4919,4.4937,4.4895,4.4953,4.4966,4.4992,4.5005,4.4973,4.5046,4.5052,4.5128,4.5157,4.517,4.5184,4.515,4.5279,4.5291,4.5303,4.5342,4.5358,4.5167,4.5166,4.5165,4.5165,0,4.4964,4.5008,4.5054,4.5082,4.5105,4.5159,4.5145,4.5171,4.5153,4.5148,4.5209,4.5216,4.5247,4.5264,4.5245,4.5336,4.5318,4.5284,4.5227,4.5325,4.5362,4.5377,4.5174,4.5172,4.517,4.5169,0,0,4.5123,4.514,4.5157,4.5169,4.5185,4.5218,4.527,4.5302,4.5324,4.5344,4.5385,4.5436,4.5404,4.542,4.5402,4.544,4.5534,4.54,4.54,4.5424,4.5633,4.5658,4.5676,4.5514,4.5516,4.5519,4.5632,0,4.5236,4.5327,4.531,4.5398,4.5438,4.5398,4.5443,4.5457,4.5454,4.5486,4.5482,4.5518,4.5474,4.5483,4.5519,4.5515,4.5575,4.5507,4.555,4.5552,4.5547,4.5696,4.5722,4.5829,4.5646,4.5648,4.565,0,4.538,4.5407,4.5499,4.551,4.5526,4.5567,4.5594,4.5626,4.5641,4.5636,4.5654,4.563,4.5679,4.5624,4.5691,4.5645,4.5662,4.5663,4.5666,4.5668,4.5606,4.57,4.5862,4.5878,4.5673,4.5671,4.5669,0,4.5486,4.5545,4.5607,4.5619,4.5633,4.5662,4.5669,4.5681,4.5701,4.5725,4.5738,4.5767,4.5782,4.5805,4.5788,4.5749,4.5858,4.5801,4.5854,4.5854,4.5877,4.5876,4.6043,4.5891,4.5891,4.589,4.589,0,4.5613,4.5671,4.5655,4.5693,4.5756,4.5736,4.5799,4.58,4.5812,4.5848,4.5816,4.5851,4.5828,4.586,4.5848,4.5905,4.5913,4.5909,4.5904,4.5911,4.5912,4.5921,4.5912,4.5895,4.5894,4.5893,4.5892,0,4.5741,4.5733,4.5799,4.5807,4.581,4.5856,4.5862,4.5897,4.5893,4.594,4.5949,4.5941,4.5978,4.5964,4.6003,4.5995,4.6068,4.6054,4.6063,4.6059,4.6113,4.6107,4.629,4.6313,4.6148,4.6149,4.6151,0,4.5823,4.5866,4.588,4.5903,4.5913,4.5951,4.5971,4.5953,4.5976,4.5996,4.6029,4.6063,4.609,4.615,4.6147,4.6176,4.6162,4.6224,4.6166,4.6172,4.6162,4.6159,4.6163,4.6236,4.6237,4.6239,4.624,0,4.5968,4.5962,4.5994,4.6025,4.6052,4.6075,4.6095,4.6115,4.6098,4.6125,4.6163,4.6184,4.6224,4.6258,4.6285,4.629,4.6262,4.6259,4.6272,4.6279,4.6282,4.628,4.6093,4.6254,4.6253,4.6252,4.6251,4.6251,4.6074,4.6111,4.6126,4.6163,4.6177,4.6196,4.623,4.623,4.6262,4.6294,4.6281,4.6325,4.6338,4.6371,4.638,4.6413,4.6389,4.6409,4.6414,4.6419,4.6425,4.6278,4.6418,4.6418,4.6417,4.6417,4.6417,0,4.6216,4.6224,4.6259,4.6289,4.6318,4.6291,4.6312,4.6337,4.6377,4.6392,4.6419,4.6463,4.6496,4.6496,4.6526,4.6553,4.654,4.6561,4.6558,4.656,4.6446,4.643,4.657,4.657,4.657,4.657,4.657,4.657,4.6293,4.6354,4.635,4.6417,4.6424,4.6468,4.6482,4.65,4.6512,4.6563,4.6591,4.6591,4.66,4.6631,4.6659,4.6658,4.667,4.6696,4.669,4.6583,4.6568,4.6553,4.6538,4.6699,4.6699,4.68,4.6801,4.6802]}]]